Fargo, ND

2:31 AM CDT on October 23, 2019 (GMT -0500)
Hector International

Weather History for KFAR - August, 2019

Change the Weather History Date:

Friday, August 9, 2019

  Actual Average Record
Temperature  
Mean Temperature 63 °F 71 °F  
Max Temperature 77 °F 83 °F 101 °F (1958)
Min Temperature 49 °F 59 °F 40 °F (1972)
Degree Days  
Heating Degree Days 2 1  
Month to date heating degree days 5 5  
Since 1 June heating degree days 69 94  
Since 1 July heating degree days 11 21  
Cooling Degree Days 0 6  
Month to date cooling degree days 57 60  
Year to date cooling degree days 435 400  
Since 1 June cooling degree days 425 369  
Growing Degree Days 12 (Base 50)    
Moisture  
Dew Point 53 °F    
Average Humidity 70    
Maximum Humidity 96    
Minimum Humidity 43    
Precipitation  
Precipitation 0.00 in 0.07 in 1.56 in (1900)
Month to date precipitation 0.97 0.64  
Year to date precipitation 17.31 14.11  
Snow  
Snow 0.00 in 0.00 in 0.00 in ()
Month to date snowfall 0.0 0.0  
Since 1 June snowfall 0.0 0.0  
Since 1 July snowfall 0.0 0.0  
Snow Depth 0.00 in    
Sea Level Pressure  
Sea Level Pressure 29.97 in    
Wind  
Wind Speed 5 mph (SSE)    
Max Wind Speed 14 mph    
Max Gust Speed 20 mph    
Visibility 10 miles    
Events      
T = Trace of Precipitation, MM = Missing Value Source: NWS Daily Summary

Daily Weather History Graph

Daily Weather History Graph

Search for Another Location

Airport or City:

Astronomy

Aug. 09, 2019 Rise Set
Actual Time 6:16 AM CDT 8:47 PM CDT
Civil Twilight 5:42 AM CDT 9:22 PM CDT
Nautical Twilight 4:59 AM CDT 10:04 PM CDT
Astronomical Twilight 4:09 AM CDT 10:53 PM CDT
Moon 4:35 PM CDT (8/9) 1:12 AM CDT (8/9)
Length of Visible Light 15h 39m
Length of Day
14h 31m
Waxing Gibbous, 70% of the Moon is Illuminated
Aug 9
Waxing Gibbous
Aug 15
Full
Aug 23
Last Quarter
Aug 30
New
Sep 5
First Quarter

Hourly Weather History & Observations

Time (CDT) Temp. Dew Point Humidity Pressure Visibility Wind Dir Wind Speed Gust Speed Precip Events Conditions
12:53 AM 55.9 °F 50.0 °F 80% 29.98 in 10.0 mi SSW 3.5 mph - N/A   Clear
1:53 AM 54.0 °F 48.9 °F 83% 29.98 in 10.0 mi Calm Calm - N/A   Clear
2:53 AM 53.1 °F 48.9 °F 86% 29.97 in 10.0 mi SW 3.5 mph - N/A   Clear
3:53 AM 54.0 °F 50.0 °F 86% 29.98 in 10.0 mi Calm Calm - N/A   Clear
4:53 AM 51.1 °F 48.9 °F 92% 29.99 in 10.0 mi Calm Calm - N/A   Clear
5:53 AM 50.0 °F 48.9 °F 96% 29.99 in 10.0 mi ENE 3.5 mph - N/A   Clear
6:53 AM 51.1 °F 50.0 °F 96% 30.00 in 10.0 mi ESE 3.5 mph - N/A   Clear
7:53 AM 59.0 °F 55.0 °F 87% 30.01 in 10.0 mi South 4.6 mph - N/A   Clear
8:53 AM 64.0 °F 53.1 °F 67% 30.00 in 10.0 mi ENE 4.6 mph - N/A   Clear
9:53 AM 66.9 °F 52.0 °F 59% 30.01 in 10.0 mi Calm Calm - N/A   Clear
10:53 AM 70.0 °F 53.1 °F 55% 30.00 in 10.0 mi Calm Calm - N/A   Overcast
11:53 AM 72.0 °F 54.0 °F 53% 29.97 in 10.0 mi SSE 9.2 mph - N/A   Scattered Clouds
12:53 PM 73.9 °F 52.0 °F 46% 29.98 in 10.0 mi South 11.5 mph - N/A   Mostly Cloudy
1:53 PM 75.0 °F 54.0 °F 48% 29.98 in 10.0 mi South 11.5 mph 17.3 mph N/A   Overcast
2:53 PM 75.0 °F 51.1 °F 43% 29.97 in 10.0 mi South 13.8 mph - N/A   Unknown
3:53 PM 73.9 °F 53.1 °F 48% 29.95 in 10.0 mi South 8.1 mph - N/A   Overcast
4:53 PM 73.9 °F 53.1 °F 48% 29.95 in 10.0 mi South 8.1 mph - N/A   Mostly Cloudy
5:53 PM 73.9 °F 51.1 °F 45% 29.94 in 10.0 mi SSE 5.8 mph - N/A   Mostly Cloudy
6:53 PM 73.9 °F 53.1 °F 48% 29.93 in 10.0 mi SSE 9.2 mph - N/A   Mostly Cloudy
7:53 PM 71.1 °F 54.0 °F 55% 29.92 in 10.0 mi ESE 5.8 mph - N/A   Clear
8:53 PM 68.0 °F 55.9 °F 65% 29.93 in 10.0 mi ESE 4.6 mph - N/A   Clear
9:53 PM 64.9 °F 57.9 °F 78% 29.94 in 10.0 mi East 5.8 mph - N/A   Partly Cloudy
10:53 PM 63.0 °F 57.9 °F 84% 29.94 in 10.0 mi ESE 5.8 mph - N/A   Clear
11:53 PM 64.0 °F 57.9 °F 80% 29.94 in 10.0 mi SE 5.8 mph - N/A   Clear